Theta_e
346 346 347 347 345 345 345 346 345 347 346 344 345 344 341 338 341 341 342 341 343 342 342 342 341 340 339 338 337 336 337 339 339
345 346 346 346 345 345 345 344 345 346 346 345 344 342 337 337 338 340 340 341 341 340 341 340 338 337 337 336 336 335 336 337 337
345 344 344 345 345 345 345 344 345 344 345 345 342 338 334 333 336 337 339 341 339 337 338 338 337 335 335 335 334 333 335 334 334
344 344 344 344 344 344 344 344 344 344 344 343 340 336 333 333 333 333 336 340 338 338 338 337 335 336 337 336 336 335 333 332 331
341 343 343 344 344 343 342 342 342 343 342 341 339 334 332 332 332 333 334 337 338 338 339 338 337 336 336 335 333 331 331 329 327
338 337 338 341 342 342 340 338 336 337 336 337 336 333 332 331 331 333 334 337 338 339 339 338 337 336 335 333 332 329 330 332 331
334 332 333 337 339 340 340 338 337 334 334 336 334 333 332 331 331 334 336 337 339 339 338 337 336 335 332 332 330 328 331 329 326
334 335 335 335 333 340 339 336 334 331 332 331 331 332 331 329 331 334 335 338 338 337 338 337 336 334 331 331 331 331 329 326 325
326 330 332 333 335 336 337 334 333 332 333 332 330 330 330 329 332 333 333 337 337 336 338 337 335 333 332 332 331 328 326 323 323
321 323 327 329 331 332 330 329 329 328 330 330 331 330 330 331 331 332 328 334 336 336 337 337 335 333 332 331 329 325 322 322 321
320 322 322 327 329 327 323 322 322 323 326 327 327 328 328 330 331 331 331 331 334 336 337 336 334 332 331 330 326 324 323 323 321
316 319 323 325 327 326 325 323 322 319 323 327 328 327 327 328 328 330 331 332 329 333 335 335 334 332 331 329 326 324 323 322 321
312 314 315 321 325 323 321 323 322 322 322 322 325 327 327 326 327 329 330 331 332 331 333 334 333 332 331 330 327 325 323 322 321
310 311 313 315 321 324 322 321 322 321 319 321 321 322 324 326 327 326 327 330 330 332 330 329 330 332 331 330 328 326 323 322 321
308 309 310 312 315 319 321 320 320 319 319 318 318 319 321 323 325 326 327 328 328 330 331 331 328 328 331 330 329 326 324 322 321
306 308 309 311 312 313 317 318 317 317 317 314 312 315 316 317 320 324 325 325 327 327 330 331 330 328 329 329 329 327 325 323 321
304 305 307 308 309 310 314 315 315 316 316 312 311 308 313 314 316 317 322 323 324 325 327 329 328 328 328 326 327 327 325 323 322
303 303 305 306 308 307 311 314 314 313 313 315 312 307 306 307 308 311 311 316 322 323 324 325 325 325 327 325 324 324 324 323 322
302 303 303 304 305 306 307 312 313 313 311 312 314 314 311 306 306 308 309 308 310 321 322 323 322 322 322 320 319 320 322 323 323
300 302 302 302 303 303 305 306 309 314 313 311 311 310 308 308 306 306 309 305 308 308 316 321 321 320 319 319 318 319 322 323 323
Wind_Speed
6 4 3 3 3 5 5 6 7 10 10 15 15 14 12 9 8 8 10 10 13 14 15 15 13 12 12 13 13 12 13 13 15
6 5 5 5 5 6 7 9 9 11 12 16 16 14 10 8 7 8 8 9 12 12 13 13 12 11 10 11 12 13 13 14 15
5 5 5 7 7 7 10 11 12 12 14 14 14 12 9 7 6 6 6 7 11 10 10 11 11 10 10 12 12 12 14 15 13
6 6 7 8 8 7 8 9 10 12 12 12 12 11 9 7 5 5 4 6 10 11 12 12 11 11 14 15 16 15 14 13 12
7 7 8 9 9 8 7 6 6 9 9 10 12 11 9 6 5 4 4 8 11 13 14 13 14 14 16 15 13 12 13 11 10
7 7 7 9 10 9 9 9 5 3 5 9 12 12 5 6 4 4 7 10 10 14 17 15 15 17 17 17 15 12 10 14 14
7 6 8 10 11 10 12 15 12 5 2 3 5 3 6 5 5 4 9 11 13 16 17 19 18 16 15 15 15 13 13 14 13
4 3 2 3 5 6 9 8 6 7 7 9 5 7 6 4 5 6 10 12 14 15 18 19 19 16 15 16 15 15 14 14 13
6 5 6 4 3 4 5 5 6 9 12 9 7 6 6 5 4 5 10 10 14 16 19 18 18 18 19 19 18 17 13 11 12
6 6 6 4 3 3 2 1 2 5 5 5 8 8 9 8 5 4 8 7 11 16 18 20 19 17 19 20 18 15 12 13 12
6 6 6 5 3 3 4 5 5 3 1 4 6 10 8 9 8 6 7 10 11 13 20 21 20 19 19 18 16 16 16 15 13
9 7 6 5 3 1 3 5 5 5 4 6 7 6 6 7 10 8 7 7 11 13 18 19 20 19 19 18 17 18 18 18 16
9 7 7 7 7 2 1 2 6 6 6 4 6 5 6 9 9 8 8 7 6 10 15 20 20 20 21 19 19 19 19 18 17
8 7 7 8 5 6 4 4 3 5 2 4 4 3 4 7 6 9 9 10 8 7 12 18 18 19 20 20 20 20 20 18 17
9 7 7 7 6 5 4 5 3 3 4 5 5 4 4 4 6 8 7 8 9 9 12 10 9 16 21 22 21 21 20 19 17
10 7 8 7 6 6 6 5 5 4 3 2 2 5 6 6 6 4 6 7 8 9 12 9 9 10 19 21 22 23 22 21 19
10 10 9 9 7 6 6 6 4 2 4 2 1 2 3 4 6 5 6 8 6 8 11 14 14 13 11 14 21 22 23 22 20
10 9 8 9 8 6 6 5 6 5 4 5 3 2 3 2 1 3 3 5 7 7 9 11 13 13 12 13 15 20 22 23 22
10 10 8 9 8 8 7 6 5 5 4 3 5 4 2 2 2 2 3 2 4 7 8 10 11 11 8 11 12 19 20 24 23
11 10 11 10 7 9 9 9 7 5 4 4 2 1 1 1 2 5 2 2 3 2 5 8 10 12 11 11 12 19 21 25 23
Wind_Direction
196 188 165 189 211 219 227 208 174 151 153 149 143 138 130 131 125 120 119 125 122 119 116 111 112 112 113 112 111 109 99 96 100
230 184 190 198 214 202 186 169 173 152 151 147 146 140 134 137 134 132 136 134 135 129 128 127 129 129 127 122 120 113 109 100 99
268 259 222 209 211 203 174 175 172 164 162 158 155 142 142 146 141 150 160 166 158 157 140 137 136 134 129 127 123 123 117 107 106
285 271 257 238 224 216 198 181 180 177 177 165 151 148 144 154 156 169 186 214 180 157 153 150 143 142 133 120 113 114 109 103 106
311 279 248 242 229 224 207 181 197 192 190 177 151 153 147 164 178 187 211 225 203 171 167 157 144 134 124 121 114 110 111 129 135
320 311 292 260 236 209 182 161 169 274 218 196 162 157 173 185 202 206 214 229 207 168 150 148 148 141 134 129 123 119 131 104 113
343 310 308 302 276 207 192 179 173 172 271 294 193 179 179 201 212 207 214 186 169 153 151 146 147 145 141 133 136 127 126 124 111
353 334 293 304 298 241 178 162 179 187 192 195 213 204 186 201 220 213 211 202 190 167 167 162 162 160 153 146 134 132 130 121 107
358 342 348 311 288 240 207 165 174 194 206 194 184 203 193 205 221 228 219 213 194 186 176 176 164 160 152 145 143 142 135 124 125
4 357 339 339 291 219 158 186 143 171 173 199 209 205 210 205 208 217 226 233 211 199 191 175 170 172 164 158 156 153 158 155 153
352 353 351 329 291 116 132 120 303 9 359 240 204 208 202 213 223 226 213 210 220 197 189 181 179 176 173 168 165 158 160 159 160
356 345 345 338 320 344 162 171 155 212 229 230 266 241 238 227 210 225 224 210 219 206 201 194 183 181 176 174 168 167 162 165 167
355 350 349 333 322 303 262 229 190 202 212 203 239 247 244 230 227 218 217 221 211 212 208 199 189 184 181 178 173 175 170 172 171
356 348 343 340 320 290 264 249 239 204 223 232 242 242 247 249 241 236 248 233 210 212 208 202 193 181 185 181 179 179 175 176 176
350 344 346 344 327 307 285 254 250 243 237 233 235 224 233 243 251 252 244 240 229 212 210 192 176 192 193 185 185 180 178 178 180
347 345 344 342 336 306 301 286 271 246 197 185 222 233 220 232 238 236 230 227 223 209 210 188 180 191 201 190 190 182 181 178 183
348 343 339 338 332 317 296 267 253 253 185 181 248 252 186 218 234 235 234 222 200 202 213 186 189 192 191 192 192 186 184 182 184
337 341 335 334 335 322 309 287 260 241 209 223 204 191 227 8 210 220 257 288 205 200 194 204 191 193 189 184 190 184 184 186 186
325 325 332 328 327 319 318 308 270 254 224 207 234 231 153 193 261 192 246 248 311 213 198 191 192 179 184 189 186 185 181 190 188
325 327 326 326 316 309 306 310 299 265 238 214 178 194 160 172 228 274 239 284 224 261 266 199 188 187 180 186 183 183 186 193 191